Regional Weather Roundup
Issued by NWS

Home | Current Version | Previous Version | Graphics & Text | Print | Product List | Glossary Off
Versions: 1 2 3 4 5 6 7 8 9 10 11 12 13 14 15 16 17 18 19 20 21 22 23 24 25 26 27 28 29 30 31 32 33 34 35 36 37 38 39 40 41 42 43 44 45 46 47 48 49 50

000
ASUS43 KDTX 242101
RWRMI
MICHIGAN HOURLY REGIONAL WEATHER ROUNDUP
NATIONAL WEATHER SERVICE DETROIT/PONTIAC MI
500 PM EDT FRI MAR 24 2017

NOTE: "FAIR" INDICATES FEW OR NO CLOUDS BELOW 12,000 FEET WITH NO
SIGNIFICANT WEATHER AND/OR OBSTRUCTION TO VISIBILITY.

MIZ047>049-052>055-059>063-066>070-074>076-081>083-242200-
SOUTHEAST LOWER MICHIGAN

CITY           SKY/WX    TMP DP  RH WIND       PRES   REMARKS
ADRIAN         SUNNY     74  53  48 W18G28    29.95S
ALMA           CLOUDY    65  48  53 W13G23    29.93R
ANN ARBOR      PTSUNNY   75  54  47 S15G28    29.92F
BAD AXE        CLOUDY    50  38  64 N16       29.95R
CARO           PTSUNNY   66  50  54 W16       29.91R
DETROIT CITY   MOSUNNY   74  53  48 SW17G23   29.91F
DETROIT        PTSUNNY   76  52  43 SW18      29.93F
FLINT          CLOUDY    66  51  58 NW10      29.92R
GROSSE ILE     MOSUNNY   73  54  49 SW16G23   29.93S
HILLSDALE      MOSUNNY   73  48  40 SW23      29.94S
HOWELL         CLOUDY    72  48  42 W8        29.91F

CITY           SKY/WX    TMP DP  RH WIND       PRES   REMARKS
JACKSON        SUNNY     76  47  35 SW28G35   29.92S
LAMBERTVILLE   SUNNY     76  54  46 W18G26    29.94F
LANSING        PTSUNNY   71  49  45 NW6       29.92F
LAPEER         CLOUDY    69  49  49 NW9       29.91R
MASON          PTSUNNY   73  53  48 W8        29.91S
MONROE         SUNNY     74  58  57 SW17      29.93S
MT. CLEMENS    PTSUNNY   72  54  53 SW14G22   29.90S
PONTIAC        CLOUDY    73  49  42 W21G26    29.90F
PORT HOPE        N/A     39  35  86 N5        29.98R
PORT HURON     CLOUDY    70  48  46 SW8       29.91S
TRI CITIES     PTSUNNY   66  50  56 W16       29.92R
MIDLAND        CLOUDY    67  47  48 W7        29.91R
TROY           MOSUNNY   74  49  42 SW13G21   29.93S
SAGINAW HB     MOSUNNY   68  46  45 W15G25    29.91R
$$
MIZ043>046-050>051-056>058-064>065-071>073-077>080-242200-
SOUTHWEST LOWER MICHIGAN

CITY           SKY/WX    TMP DP  RH WIND       PRES   REMARKS
BATTLE CREEK   SUNNY     77  46  33 W25G35    29.92S
BENTON HARBOR  SUNNY     77  46  33 SW18G25   29.90F
BIG RAPIDS     CLOUDY    61  44  52 N5        29.92R
COLDWATER      MOSUNNY   76  48  38 SW21G32   29.93S
FREMONT        PTSUNNY   62  45  53 NW7       29.92S
HOLLAND        SUNNY     63  48  58 NW8       29.92R
GRAND RAPIDS   MOSUNNY   69  49  48 NW14      29.91S
IONIA          FAIR      71  48  44 W15G24    29.90S
KALAMAZOO      SUNNY     78  45  30 SW22G29   29.91S
LUDINGTON      CLOUDY    48  38  66 N6        29.96R
MARSHALL       SUNNY     78  45  31 W20G30    29.91S
MOUNT PLEASANT MOSUNNY   65  47  52 SW9       29.91R
MUSKEGON       CLOUDY    62  46  55 CALM      29.92F
SOUTH HAVEN    SUNNY     76  47  36 SW18G24   29.90S
$$
MIZ016>042-242200-
NORTHERN LOWER MICHIGAN

CITY           SKY/WX    TMP DP  RH WIND       PRES   REMARKS
ALPENA         LGT RAIN  36  35  96 N8        30.03R FOG     WCI  30
BEAVER ISLAND  DRIZZLE   35  35  99 N7        30.03S WCI  29
BELLAIRE       FLURRIES  36  34  93 CALM      30.01S
CADILLAC       CLOUDY    41  36  83 N7        29.96S
CHARLEVOIX     MIX PCPN  33  33 100 N7        30.04F WCI  27
FRANKFORT      LGT RAIN  37  34  90 N6        30.02R WCI  32
GAYLORD        RAIN      37  33  85 NE10      29.98S FOG     WCI  30
GRAYLING       CLOUDY    37  37 100 VRB6      29.99S FOG     WCI  33
HARBOR SPRINGS RAIN      35  34  97 NE7       30.02R WCI  29
HOUGHTON LAKE  CLOUDY    42  37  82 N5        29.97R
MANISTEE       CLOUDY    43  37  79 NE6       29.98R
OSCODA         CLOUDY    42  37  79 N13       29.99R
PELLSTON       LGT RAIN  35  32  88 NE5       30.03R WCI  31
ROGERS CITY    LGT SNOW  34  33  96 NW5         N/A  WCI  30
TRAVERSE CITY  LGT RAIN  36  34  92 N7        30.01R FOG     WCI  30
$$
MIZ007>008-015-242200-
EASTERN UPPER MICHIGAN

CITY           SKY/WX    TMP DP  RH WIND       PRES   REMARKS
KINROSS        CLOUDY    35  33  92 N6        30.03R FOG     WCI  30
MACKINAC ISLAN CLOUDY    33  33 100 NE6       30.02S WCI  28
NEWBERRY       CLOUDY    35  34  96 N7        30.02S WCI  29
S. S. MARIE    CLOUDY    38  32  79 N6        30.03R WCI  33
MUNISING         N/A     35  33  92 N10       30.07R WCI  27
$$
MIZ004>006-011>014-085-242200-
CENTRAL UPPER MICHIGAN

CITY           SKY/WX    TMP DP  RH WIND       PRES   REMARKS
MANISTIQUE     CLOUDY    36  36 100 N7        30.05R FOG     WCI  30
ESCANABA       CLOUDY    37  35  92 N7        30.07R WCI  32
MENOMINEE        N/A    N/A N/A N/A MISG        N/A
SAWYER-GWINN   CLOUDY    32  32 100 N12       30.06R FOG     WCI  23
$$
MIZ001>003-009>011-084-242200-
WESTERN UPPER MICHIGAN

CITY           SKY/WX    TMP DP  RH WIND       PRES   REMARKS
IRON MOUNTAIN  CLOUDY    37  32  82 N7        30.05R WCI  32
HOUGHTON       CLOUDY    36  30  79 N13       30.10R WCI  27
COPPER HARBOR    N/A     35  33  92 NE13      30.11R WCI  26
IRONWOOD       CLOUDY    36  33  89 NE9       30.12R WCI  29
$$

ABBREVIATIONS USED IN REMARKS
   TC - TEMPERATURE IN CELSIUS
  WCI - WIND CHILL INDEX
   HX - HEAT INDEX
  VSB - VISIBILITY





USA.gov is the U.S. government's official web portal to all federal, state and local government web resources and services.